,,Stat5,,Stat1,,Stat2,,Stat3,,Stat4,,Wind1,,Wind1,
time,status,PA1M_AVG,status,PR1M_SUM,status,RH1M_AVG,status,SR1M_AVG,status,TA1M_AVG,status,W1dAve1m,status,W1sAve1m,
2001-11-28, 00:00:00,VALID,918.274,VALID,0,VALID,98.117,VALID,-0.0339617,VALID,19.8207,VALID,117,VALID,0.555954,
2001-11-28, 00:01:00,VALID,918.265,VALID,0,VALID,98.1196,VALID,-0.0169808,VALID,19.8145,VALID,124,VALID,0.879207,
2001-11-28, 00:02:00,VALID,918.251,VALID,0,VALID,98.1094,VALID,-0.0169808,VALID,19.8212,VALID,124,VALID,0.857572,
2001-11-28, 00:03:00,VALID,918.232,VALID,0,VALID,98.1259,VALID,-0.0169808,VALID,19.8275,VALID,139,VALID,1.08429,
2001-11-28, 00:04:00,VALID,918.194,VALID,0,VALID,98.1259,VALID,0,VALID,19.8339,VALID,132,VALID,1.25138,
2001-11-28, 00:05:00,VALID,918.17,VALID,0,VALID,98.0458,VALID,0,VALID,19.8173,VALID,122,VALID,1.23191,
2001-11-28, 00:06:00,VALID,918.157,VALID,0,VALID,97.9873,VALID,-0.0169808,VALID,19.8242,VALID,136,VALID,1.11782,
2001-11-28, 00:07:00,VALID,918.142,VALID,0,VALID,97.9225,VALID,0,VALID,19.8275,VALID,135,VALID,0.603207,
2001-11-28, 00:08:00,VALID,918.117,VALID,0,VALID,97.8919,VALID,0,VALID,19.821,VALID,126,VALID,0.78418,
2001-11-28, 00:09:00,VALID,918.106,VALID,0,VALID,97.8614,VALID,0,VALID,19.8111,VALID,136,VALID,0.532895,
2001-11-28, 00:10:00,VALID,918.07,VALID,0,VALID,97.8729,VALID,0,VALID,19.8081,VALID,125,VALID,0.603165,
2001-11-28, 00:11:00,VALID,918.053,VALID,0,VALID,97.8601,VALID,0,VALID,19.8086,VALID,139,VALID,0.48088,
2001-11-28, 00:12:00,VALID,918.055,VALID,0,VALID,97.8258,VALID,0,VALID,19.8016,VALID,110,VALID,0.0491365,
2001-11-28, 00:13:00,VALID,918.049,VALID,0,VALID,97.8754,VALID,0,VALID,19.785,VALID,93,VALID,0.490402,
2001-11-28, 00:14:00,VALID,918.06,VALID,0,VALID,97.8703,VALID,0,VALID,19.781,VALID,127,VALID,0.502056,
2001-11-28, 00:15:00,VALID,918.089,VALID,0,VALID,97.8245,VALID,0.0169808,VALID,19.7753,VALID,139,VALID,1.00612,
2001-11-28, 00:16:00,VALID,918.11,VALID,0,VALID,97.8462,VALID,0,VALID,19.7755,VALID,142,VALID,1.22615,
2001-11-28, 00:17:00,VALID,918.128,VALID,0,VALID,97.9021,VALID,0,VALID,19.7686,VALID,147,VALID,1.49219,
2001-11-28, 00:18:00,VALID,918.138,VALID,0,VALID,97.8411,VALID,-0.0169808,VALID,19.7919,VALID,136,VALID,1.12946,
2001-11-28, 00:19:00,VALID,918.128,VALID,0,VALID,97.7762,VALID,0,VALID,19.779,VALID,145,VALID,1.10996,
2001-11-28, 00:20:00,VALID,918.134,VALID,0,VALID,97.7927,VALID,0,VALID,19.7628,VALID,151,VALID,0.971048,
2001-11-28, 00:21:00,VALID,918.136,VALID,0,VALID,97.8347,VALID,0,VALID,19.7728,VALID,140,VALID,1.08193,
2001-11-28, 00:22:00,VALID,918.137,VALID,0,VALID,97.8767,VALID,-0.0339617,VALID,19.7596,VALID,140,VALID,1.09398,
2001-11-28, 00:23:00,VALID,918.122,VALID,0,VALID,97.8907,VALID,-0.0169808,VALID,19.7631,VALID,138,VALID,0.920186,
2001-11-28, 00:24:00,VALID,918.09,VALID,0,VALID,97.8805,VALID,0,VALID,19.7765,VALID,129,VALID,0.57959,
2001-11-28, 00:25:00,VALID,918.083,VALID,0,VALID,97.8792,VALID,-0.0339617,VALID,19.7631,VALID,118,VALID,0.786258,
2001-11-28, 00:26:00,VALID,918.061,VALID,0,VALID,97.9326,VALID,0,VALID,19.7531,VALID,141,VALID,0.777232,
2001-11-28, 00:27:00,VALID,918.042,VALID,0,VALID,97.9046,VALID,-0.0169808,VALID,19.7693,VALID,149,VALID,0.831081,
2001-11-28, 00:28:00,VALID,918.022,VALID,0,VALID,97.9059,VALID,0,VALID,19.7792,VALID,142,VALID,0.834375,
2001-11-28, 00:29:00,VALID,917.999,VALID,0,VALID,97.8958,VALID,0,VALID,19.7691,VALID,140,VALID,0.899916,
2001-11-28, 00:30:00,VALID,917.967,VALID,0,VALID,97.8652,VALID,-0.0169808,VALID,19.7658,VALID,137,VALID,1.05592,
2001-11-28, 00:31:00,VALID,917.935,VALID,0,VALID,97.7927,VALID,0,VALID,19.7628,VALID,144,VALID,0.486225,
2001-11-28, 00:32:00,VALID,917.912,VALID,0,VALID,97.8017,VALID,0,VALID,19.7591,VALID,137,VALID,0.798884,
2001-11-28, 00:33:00,VALID,917.889,VALID,0,VALID,97.78,VALID,0,VALID,19.7596,VALID,115,VALID,0.644848,
2001-11-28, 00:34:00,VALID,917.87,VALID,0,VALID,97.7203,VALID,0,VALID,19.7437,VALID,106,VALID,0.536535,
2001-11-28, 00:35:00,VALID,917.849,VALID,0,VALID,97.6821,VALID,0,VALID,19.7435,VALID,95,VALID,0.561867,
2001-11-28, 00:36:00,VALID,917.832,VALID,0,VALID,97.6719,VALID,-0.0169808,VALID,19.7308,VALID,82,VALID,0.53418,
2001-11-28, 00:37:00,VALID,917.814,VALID,0,VALID,97.677,VALID,0,VALID,19.7149,VALID,106,VALID,0.797476,
2001-11-28, 00:38:00,VALID,917.794,VALID,0,VALID,97.7037,VALID,-0.0339617,VALID,19.7052,VALID,115,VALID,0.951563,
2001-11-28, 00:39:00,VALID,917.791,VALID,0,VALID,97.705,VALID,-0.0169808,VALID,19.6955,VALID,129,VALID,0.842905,
2001-11-28, 00:40:00,VALID,917.805,VALID,0,VALID,97.7012,VALID,0,VALID,19.6856,VALID,130,VALID,1.11236,
2001-11-28, 00:41:00,VALID,917.785,VALID,0,VALID,97.7546,VALID,-0.0169808,VALID,19.6818,VALID,135,VALID,1.34185,
2001-11-28, 00:42:00,VALID,917.76,VALID,0,VALID,97.7037,VALID,0,VALID,19.6791,VALID,124,VALID,1.07504,
2001-11-28, 00:43:00,VALID,917.73,VALID,0,VALID,97.6541,VALID,0,VALID,19.6694,VALID,146,VALID,0.480263,
2001-11-28, 00:44:00,VALID,917.69,VALID,0,VALID,97.705,VALID,0,VALID,19.6662,VALID,141,VALID,0.899554,
2001-11-28, 00:45:00,VALID,917.661,VALID,0,VALID,97.7088,VALID,0.0169808,VALID,19.6629,VALID,145,VALID,0.976563,
2001-11-28, 00:46:00,VALID,917.65,VALID,0,VALID,97.7304,VALID,-0.0339617,VALID,19.6562,VALID,148,VALID,0.944853,
2001-11-28, 00:47:00,VALID,917.645,VALID,0,VALID,97.7775,VALID,0,VALID,19.6597,VALID,145,VALID,1.36149,
2001-11-28, 00:48:00,VALID,917.637,VALID,0,VALID,97.7635,VALID,-0.0169808,VALID,19.6498,VALID,151,VALID,1.10327,
2001-11-28, 00:49:00,VALID,917.62,VALID,0,VALID,97.7826,VALID,0,VALID,19.6696,VALID,135,VALID,0.889423,
2001-11-28, 00:50:00,VALID,917.601,VALID,0,VALID,97.8309,VALID,0,VALID,19.6659,VALID,135,VALID,1.01763,
2001-11-28, 00:51:00,VALID,917.585,VALID,0,VALID,97.8195,VALID,-0.0169808,VALID,19.6818,VALID,132,VALID,0.950802,
2001-11-28, 00:52:00,VALID,917.562,VALID,0,VALID,97.766,VALID,0,VALID,19.7054,VALID,140,VALID,0.985983,
2001-11-28, 00:53:00,VALID,917.556,VALID,0,VALID,97.6719,VALID,0,VALID,19.6952,VALID,131,VALID,0.602618,
2001-11-28, 00:54:00,VALID,917.554,VALID,0,VALID,97.6084,VALID,0,VALID,19.6918,VALID,129,VALID,0.22389,
2001-11-28, 00:55:00,VALID,917.541,VALID,0,VALID,97.5639,VALID,0,VALID,19.6726,VALID,152,VALID,0.108964,
2001-11-28, 00:56:00,VALID,917.542,VALID,0,VALID,97.4952,VALID,0.0169808,VALID,19.653,VALID,153,VALID,0.0801339,
2001-11-28, 00:57:01,VALID,917.527,VALID,0,VALID,97.4596,VALID,-0.0169808,VALID,19.6336,VALID,119,VALID,0.275549,
2001-11-28, 00:58:01,VALID,917.525,VALID,0,VALID,97.4837,VALID,0,VALID,19.6175,VALID,134,VALID,0.481158,
2001-11-28, 00:59:00,VALID,917.504,VALID,0,VALID,97.485,VALID,0,VALID,19.6083,VALID,146,VALID,0.426309,
2001-11-28, 01:00:00,VALID,917.488,VALID,0,VALID,97.5359,VALID,-0.0339617,VALID,19.605,VALID,153,VALID,0.638184,
2001-11-28, 01:01:00,VALID,917.48,VALID,0,VALID,97.5651,VALID,-0.0339617,VALID,19.5881,VALID,145,VALID,0.638021,
2001-11-28, 01:02:00,VALID,917.451,VALID,0,VALID,97.5232,VALID,0,VALID,19.605,VALID,157,VALID,0.607366,
2001-11-28, 01:03:00,VALID,917.428,VALID,0,VALID,97.5346,VALID,0.0339617,VALID,19.5854,VALID,147,VALID,0.871833,
2001-11-28, 01:04:00,VALID,917.395,VALID,0,VALID,97.5779,VALID,-0.0169808,VALID,19.5787,VALID,161,VALID,0.841682,
2001-11-28, 01:05:00,VALID,917.378,VALID,0,VALID,97.6211,VALID,0,VALID,19.5787,VALID,155,VALID,1.09818,
2001-11-28, 01:06:00,VALID,917.364,VALID,0,VALID,97.6313,VALID,-0.0169808,VALID,19.5852,VALID,164,VALID,1.01357,
2001-11-28, 01:07:00,VALID,917.368,VALID,0,VALID,97.6185,VALID,0,VALID,19.5685,VALID,165,VALID,0.922286,
2001-11-28, 01:08:00,VALID,917.355,VALID,0,VALID,97.5511,VALID,0.0169808,VALID,19.5665,VALID,151,VALID,0.651786,
2001-11-28, 01:09:00,VALID,917.35,VALID,0,VALID,97.5219,VALID,0,VALID,19.5302,VALID,152,VALID,0.837416,
2001-11-28, 01:10:00,VALID,917.32,VALID,0,VALID,97.5232,VALID,0,VALID,19.5014,VALID,161,VALID,0.752068,
2001-11-28, 01:11:00,VALID,917.293,VALID,0,VALID,97.616,VALID,0,VALID,19.4786,VALID,141,VALID,0.781461,
2001-11-28, 01:12:00,VALID,917.264,VALID,0,VALID,97.7317,VALID,-0.0169808,VALID,19.4659,VALID,138,VALID,0.947998,
2001-11-28, 01:13:00,VALID,917.255,VALID,0,VALID,97.7571,VALID,0,VALID,19.4626,VALID,129,VALID,0.721755,
2001-11-28, 01:14:00,VALID,917.25,VALID,0,VALID,97.8423,VALID,-0.0169808,VALID,19.4624,VALID,131,VALID,1.0375,
2001-11-28, 01:15:00,VALID,917.217,VALID,0,VALID,97.8156,VALID,0,VALID,19.4661,VALID,138,VALID,0.79603,
2001-11-28, 01:16:00,VALID,917.19,VALID,0,VALID,97.8195,VALID,-0.0169808,VALID,19.4562,VALID,139,VALID,0.955882,
2001-11-28, 01:17:00,VALID,917.144,VALID,0,VALID,97.8309,VALID,-0.0169808,VALID,19.4689,VALID,124,VALID,1.09924,
2001-11-28, 01:18:00,VALID,917.096,VALID,0,VALID,97.7864,VALID,0.0169808,VALID,19.4691,VALID,135,VALID,1.22389,
2001-11-28, 01:19:00,VALID,917.056,VALID,0,VALID,97.7622,VALID,-0.0169808,VALID,19.4696,VALID,149,VALID,1.06497,
2001-11-28, 01:20:00,VALID,917.036,VALID,0,VALID,97.7724,VALID,0,VALID,19.4626,VALID,158,VALID,1.12411,
2001-11-28, 01:21:00,VALID,917.024,VALID,0,VALID,97.7826,VALID,-0.0169808,VALID,19.4696,VALID,150,VALID,0.918285,
2001-11-28, 01:22:00,VALID,917.026,VALID,0,VALID,97.836,VALID,-0.0169808,VALID,19.4659,VALID,149,VALID,1.05055,
2001-11-28, 01:23:00,VALID,917.035,VALID,0,VALID,97.7749,VALID,0,VALID,19.4723,VALID,162,VALID,0.914063,
2001-11-28, 01:24:00,VALID,917.034,VALID,0,VALID,97.7419,VALID,0,VALID,19.4594,VALID,157,VALID,0.845459,
2001-11-28, 01:25:00,VALID,917.021,VALID,0,VALID,97.7826,VALID,0.0169808,VALID,19.4463,VALID,158,VALID,1.04307,
2001-11-28, 01:26:00,VALID,917.005,VALID,0,VALID,97.7889,VALID,0,VALID,19.44,VALID,168,VALID,1.06071,
2001-11-28, 01:27:00,VALID,916.991,VALID,0,VALID,97.8334,VALID,-0.0169808,VALID,19.4336,VALID,177,VALID,0.870355,
2001-11-28, 01:28:00,VALID,916.981,VALID,0,VALID,97.8055,VALID,0.0339617,VALID,19.4139,VALID,167,VALID,0.474954,
2001-11-28, 01:29:00,VALID,916.976,VALID,0,VALID,97.7597,VALID,-0.0169808,VALID,19.3752,VALID,169,VALID,0.921242,
2001-11-28, 01:30:00,VALID,916.974,VALID,0,VALID,97.883,VALID,0,VALID,19.3657,VALID,172,VALID,1.02035,
2001-11-28, 01:31:00,VALID,916.944,VALID,0,VALID,97.8741,VALID,0,VALID,19.3526,VALID,176,VALID,0.910362,
2001-11-28, 01:32:00,VALID,916.93,VALID,0,VALID,97.8868,VALID,0,VALID,19.3434,VALID,186,VALID,1.0029,
2001-11-28, 01:33:00,VALID,916.899,VALID,0,VALID,97.9708,VALID,-0.0169808,VALID,19.3374,VALID,162,VALID,1.10494,
2001-11-28, 01:34:00,VALID,916.889,VALID,0,VALID,97.9962,VALID,0,VALID,19.3076,VALID,161,VALID,0.993336,
2001-11-28, 01:35:00,VALID,916.867,VALID,0,VALID,98.0305,VALID,-0.0169808,VALID,19.3044,VALID,166,VALID,0.637458,
2001-11-28, 01:36:00,VALID,916.868,VALID,0,VALID,97.972,VALID,0,VALID,19.2688,VALID,149,VALID,0.423096,
2001-11-28, 01:37:00,VALID,916.849,VALID,0,VALID,98.0534,VALID,0,VALID,19.2462,VALID,149,VALID,1.0024,
2001-11-28, 01:38:00,VALID,916.838,VALID,0,VALID,98.1552,VALID,0.0169808,VALID,19.2328,VALID,158,VALID,0.809598,
2001-11-28, 01:39:00,VALID,916.816,VALID,0,VALID,98.1768,VALID,0,VALID,19.2199,VALID,151,VALID,0.530405,
2001-11-28, 01:40:00,VALID,916.808,VALID,0,VALID,98.2709,VALID,-0.0339617,VALID,19.2338,VALID,152,VALID,1.07881,
2001-11-28, 01:41:00,VALID,916.824,VALID,0,VALID,98.3192,VALID,0,VALID,19.2171,VALID,154,VALID,1.01161,
2001-11-28, 01:42:00,VALID,916.835,VALID,0,VALID,98.3942,VALID,-0.0339617,VALID,19.234,VALID,150,VALID,1.29749,
2001-11-28, 01:43:00,VALID,916.838,VALID,0,VALID,98.4057,VALID,0,VALID,19.2469,VALID,152,VALID,0.86102,
2001-11-28, 01:44:00,VALID,916.834,VALID,0,VALID,98.4336,VALID,0,VALID,19.2465,VALID,156,VALID,1.11138,
2001-11-28, 01:45:00,VALID,916.8,VALID,0,VALID,98.4273,VALID,0,VALID,19.2398,VALID,144,VALID,0.88788,
2001-11-28, 01:46:00,VALID,916.788,VALID,0,VALID,98.4133,VALID,0,VALID,19.2268,VALID,130,VALID,0.630515,
2001-11-28, 01:47:00,VALID,916.768,VALID,0,VALID,98.3929,VALID,-0.0339617,VALID,19.2112,VALID,139,VALID,0.36212,
2001-11-28, 01:48:00,VALID,916.746,VALID,0,VALID,98.4044,VALID,0,VALID,19.2015,VALID,144,VALID,0.805176,
2001-11-28, 01:49:00,VALID,916.734,VALID,0,VALID,98.5125,VALID,0,VALID,19.201,VALID,149,VALID,1.01242,
2001-11-28, 01:50:00,VALID,916.718,VALID,0,VALID,98.5252,VALID,-0.0169808,VALID,19.2079,VALID,156,VALID,0.634152,
2001-11-28, 01:51:00,VALID,916.719,VALID,0,VALID,98.5036,VALID,-0.0169808,VALID,19.2142,VALID,155,VALID,0.728674,
2001-11-28, 01:52:00,VALID,916.733,VALID,0,VALID,98.5354,VALID,0,VALID,19.2075,VALID,152,VALID,1.14108,
2001-11-28, 01:53:00,VALID,916.749,VALID,0,VALID,98.4934,VALID,0,VALID,19.2176,VALID,162,VALID,0.821368,
2001-11-28, 01:54:00,VALID,916.747,VALID,0,VALID,98.5112,VALID,-0.0679233,VALID,19.2109,VALID,138,VALID,0.915913,
2001-11-28, 01:55:00,VALID,916.75,VALID,0,VALID,98.4565,VALID,0,VALID,19.2079,VALID,150,VALID,0.634252,
2001-11-28, 01:56:00,VALID,916.732,VALID,0,VALID,98.4756,VALID,0,VALID,19.2045,VALID,135,VALID,0.707366,
2001-11-28, 01:57:00,VALID,916.725,VALID,0,VALID,98.4692,VALID,-0.0169808,VALID,19.2047,VALID,122,VALID,0.858319,
2001-11-28, 01:58:00,VALID,916.693,VALID,0,VALID,98.4502,VALID,0,VALID,19.2184,VALID,144,VALID,0.381204,
2001-11-28, 01:59:00,VALID,916.672,VALID,0,VALID,98.4413,VALID,-0.0169808,VALID,19.2079,VALID,135,VALID,0.886613,
2001-11-28, 02:00:00,VALID,916.643,VALID,0,VALID,98.4235,VALID,-0.0679233,VALID,19.2077,VALID,136,VALID,0.67627,
2001-11-28, 02:01:00,VALID,916.637,VALID,0,VALID,98.3586,VALID,-0.0679233,VALID,19.2079,VALID,130,VALID,0.373197,
2001-11-28, 02:02:00,VALID,916.614,VALID,0,VALID,98.2976,VALID,-0.0509425,VALID,19.1853,VALID,166,VALID,0.227455,
2001-11-28, 02:03:00,VALID,916.61,VALID,0,VALID,98.2709,VALID,-0.0339617,VALID,19.1722,VALID,157,VALID,0.147593,
2001-11-28, 02:04:00,VALID,916.588,VALID,0,VALID,98.2594,VALID,-0.0339617,VALID,19.1726,VALID,171,VALID,0.413833,
2001-11-28, 02:05:00,VALID,916.583,VALID,0,VALID,98.2721,VALID,-0.0679233,VALID,19.1722,VALID,101,VALID,0.392103,
2001-11-28, 02:06:00,VALID,916.564,VALID,0,VALID,98.2378,VALID,-0.0849042,VALID,19.1664,VALID,94,VALID,0,
2001-11-28, 02:07:00,VALID,916.554,VALID,0,VALID,98.2225,VALID,-0.0679233,VALID,19.1537,VALID,107,VALID,0.217105,
2001-11-28, 02:08:00,VALID,916.551,VALID,0,VALID,98.2429,VALID,-0.0679233,VALID,19.1634,VALID,118,VALID,0.444643,
2001-11-28, 02:09:00,VALID,916.525,VALID,0,VALID,98.1132,VALID,-0.0509425,VALID,19.1443,VALID,85,VALID,0.368666,
2001-11-28, 02:10:00,VALID,916.474,VALID,0,VALID,98.173,VALID,-0.0509425,VALID,19.1182,VALID,101,VALID,0.694393,
2001-11-28, 02:11:00,VALID,916.443,VALID,0,VALID,98.1958,VALID,-0.0339617,VALID,19.1212,VALID,97,VALID,0.40815,
2001-11-28, 02:12:00,VALID,916.419,VALID,0,VALID,98.1602,VALID,-0.0509425,VALID,19.1152,VALID,99,VALID,0.4104,
2001-11-28, 02:13:00,VALID,916.42,VALID,0,VALID,98.1895,VALID,-0.0339617,VALID,19.1013,VALID,121,VALID,0.520833,
2001-11-28, 02:14:00,VALID,916.421,VALID,0,VALID,98.2378,VALID,-0.0509425,VALID,19.1214,VALID,126,VALID,0.486607,
2001-11-28, 02:15:00,VALID,916.44,VALID,0,VALID,98.1615,VALID,-0.0509425,VALID,19.1217,VALID,142,VALID,0.727618,
2001-11-28, 02:16:00,VALID,916.41,VALID,0,VALID,98.1869,VALID,-0.0679233,VALID,19.1051,VALID,133,VALID,0.949908,
2001-11-28, 02:17:00,VALID,916.398,VALID,0,VALID,98.1679,VALID,-0.0679233,VALID,19.1016,VALID,122,VALID,0.583615,
2001-11-28, 02:18:00,VALID,916.376,VALID,0,VALID,98.1564,VALID,-0.0679233,VALID,19.1021,VALID,134,VALID,0.828125,
2001-11-28, 02:19:00,VALID,916.354,VALID,0,VALID,98.1424,VALID,-0.0339617,VALID,19.0988,VALID,137,VALID,0.597451,
2001-11-28, 02:20:00,VALID,916.322,VALID,0,VALID,98.1145,VALID,-0.0679233,VALID,19.0792,VALID,121,VALID,0.771429,
2001-11-28, 02:21:00,VALID,916.317,VALID,0,VALID,98.1297,VALID,-0.0509425,VALID,19.0626,VALID,135,VALID,0.82538,
2001-11-28, 02:22:00,VALID,916.307,VALID,0,VALID,98.1615,VALID,-0.0849042,VALID,19.0663,VALID,127,VALID,0.563879,
2001-11-28, 02:23:00,VALID,916.294,VALID,0,VALID,98.2073,VALID,-0.0509425,VALID,19.0765,VALID,139,VALID,0.844595,
2001-11-28, 02:24:00,VALID,916.287,VALID,0,VALID,98.2378,VALID,-0.0509425,VALID,19.0693,VALID,130,VALID,1.01904,
2001-11-28, 02:25:00,VALID,916.275,VALID,0,VALID,98.248,VALID,0,VALID,19.0757,VALID,122,VALID,0.689503,
2001-11-28, 02:26:00,VALID,916.26,VALID,0,VALID,98.1958,VALID,0,VALID,19.0755,VALID,120,VALID,0.672321,
2001-11-28, 02:27:00,VALID,916.237,VALID,0,VALID,98.1908,VALID,-0.0339617,VALID,19.076,VALID,123,VALID,0.270481,
2001-11-28, 02:28:00,VALID,916.244,VALID,0,VALID,98.1577,VALID,-0.0509425,VALID,19.076,VALID,137,VALID,0.652344,
2001-11-28, 02:29:00,VALID,916.254,VALID,0,VALID,98.1628,VALID,-0.0169808,VALID,19.0497,VALID,136,VALID,0.907939,
2001-11-28, 02:30:00,VALID,916.25,VALID,0,VALID,98.1539,VALID,-0.0679233,VALID,19.0601,VALID,138,VALID,0.410156,
2001-11-28, 02:31:00,VALID,916.271,VALID,0,VALID,98.131,VALID,-0.0679233,VALID,19.0504,VALID,131,VALID,0.612048,
2001-11-28, 02:32:00,VALID,916.273,VALID,0,VALID,98.117,VALID,-0.0509425,VALID,19.0439,VALID,132,VALID,0.5,
2001-11-28, 02:33:00,VALID,916.282,VALID,0,VALID,98.1119,VALID,-0.0339617,VALID,19.0211,VALID,127,VALID,0.269426,
2001-11-28, 02:34:00,VALID,916.255,VALID,0,VALID,98.0954,VALID,-0.0679233,VALID,19.0215,VALID,131,VALID,0.641774,
2001-11-28, 02:35:00,VALID,916.242,VALID,0,VALID,98.1259,VALID,-0.0339617,VALID,19.0178,VALID,134,VALID,0.70038,
2001-11-28, 02:36:00,VALID,916.233,VALID,0,VALID,98.178,VALID,-0.0169808,VALID,19.0079,VALID,151,VALID,0.700195,
2001-11-28, 02:37:00,VALID,916.232,VALID,0,VALID,98.2124,VALID,-0.0339617,VALID,19.0178,VALID,147,VALID,0.623311,
2001-11-28, 02:38:00,VALID,916.224,VALID,0,VALID,98.2213,VALID,-0.0339617,VALID,19.0176,VALID,145,VALID,0.978571,
2001-11-28, 02:39:00,VALID,916.246,VALID,0,VALID,98.2963,VALID,0,VALID,19.0241,VALID,149,VALID,0.801098,
2001-11-28, 02:40:00,VALID,916.245,VALID,0,VALID,98.2124,VALID,-0.0169808,VALID,19.0305,VALID,149,VALID,0.86466,
2001-11-28, 02:41:00,VALID,916.238,VALID,0,VALID,98.1717,VALID,-0.0169808,VALID,19.0079,VALID,152,VALID,0.921453,
2001-11-28, 02:42:00,VALID,916.217,VALID,0,VALID,98.2747,VALID,-0.0169808,VALID,19.0174,VALID,149,VALID,1.24794,
2001-11-28, 02:43:00,VALID,916.211,VALID,0,VALID,98.2798,VALID,-0.0169808,VALID,19.0308,VALID,154,VALID,1.18873,
2001-11-28, 02:44:00,VALID,916.209,VALID,0,VALID,98.2467,VALID,-0.0169808,VALID,19.0367,VALID,158,VALID,1.13594,
2001-11-28, 02:45:00,VALID,916.213,VALID,0,VALID,98.1971,VALID,-0.0169808,VALID,19.0407,VALID,157,VALID,1.13746,
2001-11-28, 02:46:00,VALID,916.2,VALID,0,VALID,98.2429,VALID,-0.0169808,VALID,19.0375,VALID,149,VALID,1.63051,
2001-11-28, 02:47:00,VALID,916.171,VALID,0,VALID,98.2467,VALID,-0.0169808,VALID,19.037,VALID,154,VALID,1.40646,
2001-11-28, 02:48:00,VALID,916.134,VALID,0,VALID,98.206,VALID,0,VALID,19.0338,VALID,163,VALID,1.20288,
2001-11-28, 02:49:00,VALID,916.095,VALID,0,VALID,98.1666,VALID,0,VALID,19.0335,VALID,155,VALID,1.01603,
2001-11-28, 02:50:00,VALID,916.077,VALID,0,VALID,98.1768,VALID,-0.0169808,VALID,19.03,VALID,145,VALID,1.24933,
2001-11-28, 02:51:00,VALID,916.051,VALID,0,VALID,98.1806,VALID,0,VALID,19.0236,VALID,144,VALID,1.34375,
2001-11-28, 02:52:00,VALID,916.06,VALID,0,VALID,98.2264,VALID,0.0169808,VALID,19.0335,VALID,142,VALID,1.33111,
2001-11-28, 02:53:00,VALID,916.066,VALID,0,VALID,98.206,VALID,0,VALID,19.0372,VALID,143,VALID,1.51161,
2001-11-28, 02:54:00,VALID,916.077,VALID,0,VALID,98.2594,VALID,0,VALID,19.0402,VALID,151,VALID,1.45292,
2001-11-28, 02:55:00,VALID,916.092,VALID,0,VALID,98.2048,VALID,-0.0169808,VALID,19.0305,VALID,143,VALID,1.02919,
2001-11-28, 02:56:00,VALID,916.088,VALID,0,VALID,98.2048,VALID,0,VALID,19.0109,VALID,146,VALID,1.39777,
2001-11-28, 02:57:00,VALID,916.069,VALID,0,VALID,98.2276,VALID,0,VALID,19.0109,VALID,152,VALID,1.13577,
2001-11-28, 02:58:00,VALID,916.059,VALID,0,VALID,98.3167,VALID,0,VALID,19.0308,VALID,147,VALID,2.2091,
2001-11-28, 02:59:00,VALID,916.05,VALID,0,VALID,98.2467,VALID,-0.0169808,VALID,19.0531,VALID,145,VALID,1.23796,
2001-11-28, 03:00:00,VALID,916.05,VALID,0,VALID,98.2022,VALID,0,VALID,19.0363,VALID,145,VALID,1.50098,
2001-11-28, 03:01:00,VALID,916.063,VALID,0,VALID,98.1056,VALID,0,VALID,19.0504,VALID,148,VALID,0.890024,
2001-11-28, 03:02:00,VALID,916.065,VALID,0,VALID,98.0331,VALID,0.0169808,VALID,19.0372,VALID,150,VALID,1.27299,
2001-11-28, 03:03:00,VALID,916.073,VALID,0,VALID,97.9975,VALID,-0.0169808,VALID,19.0273,VALID,150,VALID,0.985008,
2001-11-28, 03:04:00,VALID,916.057,VALID,0,VALID,97.9809,VALID,0,VALID,19.0146,VALID,157,VALID,1.24494,
2001-11-28, 03:05:00,VALID,916.063,VALID,0,VALID,97.9746,VALID,0,VALID,19.0116,VALID,149,VALID,1.32665,
2001-11-28, 03:06:00,VALID,916.089,VALID,0,VALID,97.9733,VALID,-0.0339617,VALID,18.9851,VALID,160,VALID,1.25514,
2001-11-28, 03:07:00,VALID,916.093,VALID,0,VALID,97.9352,VALID,0,VALID,18.9957,VALID,158,VALID,1.24445,
2001-11-28, 03:08:00,VALID,916.106,VALID,0,VALID,97.967,VALID,0,VALID,18.9858,VALID,152,VALID,1.32879,
2001-11-28, 03:09:00,VALID,916.113,VALID,0,VALID,98.0038,VALID,0,VALID,18.9788,VALID,150,VALID,1.28019,
2001-11-28, 03:10:00,VALID,916.118,VALID,0,VALID,98.0344,VALID,0,VALID,18.9784,VALID,146,VALID,1.40257,
2001-11-28, 03:11:00,VALID,916.111,VALID,0,VALID,97.9657,VALID,-0.0169808,VALID,18.9587,VALID,148,VALID,1.07622,
2001-11-28, 03:12:00,VALID,916.091,VALID,0,VALID,98.0471,VALID,0,VALID,18.9565,VALID,154,VALID,1.01587,
2001-11-28, 03:13:00,VALID,916.087,VALID,0,VALID,98.0471,VALID,-0.0169808,VALID,18.9398,VALID,152,VALID,1.08273,
2001-11-28, 03:14:00,VALID,916.091,VALID,0,VALID,98.1501,VALID,0,VALID,18.9239,VALID,156,VALID,1.29554,
2001-11-28, 03:15:00,VALID,916.089,VALID,0,VALID,98.2836,VALID,0,VALID,18.9172,VALID,159,VALID,1.19848,
2001-11-28, 03:16:00,VALID,916.077,VALID,0,VALID,98.365,VALID,0,VALID,18.9172,VALID,165,VALID,1.18566,
2001-11-28, 03:17:00,VALID,916.058,VALID,0,VALID,98.4146,VALID,0.0169808,VALID,18.9172,VALID,159,VALID,1.69193,
2001-11-28, 03:18:00,VALID,916.064,VALID,0,VALID,98.4947,VALID,-0.0169808,VALID,18.9172,VALID,164,VALID,1.4484,
2001-11-28, 03:19:00,VALID,916.07,VALID,0,VALID,98.5239,VALID,0,VALID,18.911,VALID,141,VALID,1.46094,
2001-11-28, 03:20:00,VALID,916.079,VALID,0,VALID,98.5265,VALID,0,VALID,18.8849,VALID,149,VALID,1.23527,
2001-11-28, 03:21:00,VALID,916.081,VALID,0,VALID,98.5646,VALID,0,VALID,18.8626,VALID,145,VALID,1.2652,
2001-11-28, 03:22:00,VALID,916.081,VALID,0,VALID,98.6117,VALID,-0.0169808,VALID,18.8591,VALID,148,VALID,1.17578,
2001-11-28, 03:23:00,VALID,916.066,VALID,0,VALID,98.7083,VALID,-0.0169808,VALID,18.8559,VALID,146,VALID,1.41955,
2001-11-28, 03:24:00,VALID,916.073,VALID,0,VALID,98.7274,VALID,0,VALID,18.8656,VALID,159,VALID,1,
2001-11-28, 03:25:00,VALID,916.073,VALID,0,VALID,98.7185,VALID,-0.0169808,VALID,18.8621,VALID,157,VALID,1.02544,
2001-11-28, 03:26:00,VALID,916.085,VALID,0,VALID,98.7452,VALID,-0.0169808,VALID,18.8566,VALID,158,VALID,1.07478,
2001-11-28, 03:27:00,VALID,916.079,VALID,0,VALID,98.7604,VALID,0,VALID,18.8566,VALID,166,VALID,1.40329,
2001-11-28, 03:28:00,VALID,916.082,VALID,0,VALID,98.7808,VALID,0,VALID,18.8621,VALID,149,VALID,0.744256,
2001-11-28, 03:29:00,VALID,916.082,VALID,0,VALID,98.7414,VALID,0,VALID,18.8432,VALID,171,VALID,0.763514,
2001-11-28, 03:30:00,VALID,916.075,VALID,0,VALID,98.7337,VALID,0,VALID,18.8243,VALID,152,VALID,1.18688,
2001-11-28, 03:31:00,VALID,916.066,VALID,0,VALID,98.7897,VALID,-0.0169808,VALID,18.8109,VALID,153,VALID,1.05181,
2001-11-28, 03:32:00,VALID,916.077,VALID,0,VALID,98.824,VALID,0,VALID,18.8176,VALID,148,VALID,0.735937,
2001-11-28, 03:33:00,VALID,916.075,VALID,0,VALID,98.7999,VALID,0,VALID,18.8044,VALID,148,VALID,0.925887,
2001-11-28, 03:34:00,VALID,916.057,VALID,0,VALID,98.8278,VALID,-0.0169808,VALID,18.795,VALID,153,VALID,1.23621,
2001-11-28, 03:35:00,VALID,916.06,VALID,0,VALID,98.8609,VALID,-0.0679233,VALID,18.7917,VALID,143,VALID,1.57665,
2001-11-28, 03:36:00,VALID,916.042,VALID,0,VALID,98.9181,VALID,-0.0169808,VALID,18.8106,VALID,142,VALID,1.34009,